Guthrie, OK

5:24 PM CST on January 16, 2017 (GMT -0600)
Guthrie Municipal

Weather History for KGOK - September, 2014

Change the Weather History Date:

Friday, September 5, 2014

  Actual Average Record
Temperature  
Mean Temperature 82 °F -  
Max Temperature 98 °F 91 °F 108 °F (1998)
Min Temperature 64 °F 66 °F 47 °F (1974)
Cooling Degree Days 18    
Growing Degree Days 32 (Base 50)    
Moisture  
Dew Point 65 °F    
Average Humidity 57    
Maximum Humidity 87    
Minimum Humidity 30    
Precipitation  
Precipitation 0.02 in - - ()
Sea Level Pressure  
Sea Level Pressure 30.03 in    
Wind  
Wind Speed 12 mph (SSW)    
Max Wind Speed 15 mph    
Max Gust Speed 24 mph    
Visibility 10 miles    
Events Thunderstorm    
Averages and records for this station are not official NWS values.
T = Trace of Precipitation, MM = Missing Value Source: NWS Daily Summary

Daily Weather History Graph

Daily Weather History Graph

Search for Another Location

Airport or City:

Trip Planner

Search our weather history database for the weather conditions in past years. The results will help you decide how hot, cold, wet, or windy it might be!

Date:

Astronomy

Sep. 05, 2014 Rise Set
Actual Time 7:04 AM CDT 7:51 PM CDT
Civil Twilight 6:38 AM CDT 8:17 PM CDT
Nautical Twilight 6:07 AM CDT 8:47 PM CDT
Astronomical Twilight 5:36 AM CDT 9:19 PM CDT
Moon 5:16 PM CDT (9/5) 3:05 AM CDT (9/5)
Length of Visible Light 13h 38m
Length of Day
12h 46m
Waxing Gibbous, 84% of the Moon is Illuminated
Sep 5
Waxing Gibbous
Sep 8
Full
Sep 15
Last Quarter
Sep 24
New
Oct 1
First Quarter

Hourly Weather History & Observations

Time (CDT) Temp. Heat Index Dew Point Humidity Pressure Visibility Wind Dir Wind Speed Gust Speed Precip Events Conditions
12:53 AM 82.0 °F 83.8 °F 64.9 °F 56% 29.97 in 10.0 mi South 15.0 mph - N/A   Clear
1:53 AM 82.0 °F 84.1 °F 66.0 °F 58% 29.97 in 10.0 mi South 13.8 mph - N/A   Clear
2:53 AM 82.0 °F 84.1 °F 66.0 °F 58% 29.97 in 10.0 mi South 12.7 mph - N/A   Clear
4:53 AM 81.0 °F 83.0 °F 66.0 °F 60% 29.99 in 10.0 mi South 11.5 mph - N/A   Clear
5:53 AM 80.1 °F 82.1 °F 66.0 °F 62% 30.00 in 10.0 mi South 9.2 mph - N/A   Clear
6:53 AM 78.1 °F - 66.0 °F 66% 30.03 in 10.0 mi South 9.2 mph - N/A   Clear
7:53 AM 79.0 °F - 66.9 °F 66% 30.04 in 10.0 mi SSW 8.1 mph - N/A   Clear
8:53 AM 82.9 °F 85.4 °F 66.9 °F 58% 30.04 in 10.0 mi SW 13.8 mph - N/A   Clear
9:53 AM 87.1 °F 89.2 °F 66.0 °F 49% 30.05 in 10.0 mi SSW 10.4 mph 20.7 mph N/A   Partly Cloudy
11:53 AM 91.9 °F 93.3 °F 64.0 °F 39% 30.05 in 10.0 mi SSW 11.5 mph - N/A   Partly Cloudy
12:53 PM 93.9 °F 95.2 °F 63.0 °F 36% 30.03 in 10.0 mi SW 13.8 mph 19.6 mph N/A   Clear
1:53 PM 95.0 °F 96.0 °F 63.0 °F 34% 30.01 in 10.0 mi South 9.2 mph 18.4 mph N/A   Clear
2:53 PM 97.0 °F 97.8 °F 62.1 °F 31% 29.99 in 10.0 mi WSW 10.4 mph - N/A   Clear
3:53 PM 97.0 °F 97.4 °F 61.0 °F 30% 29.96 in 10.0 mi SSW 11.5 mph 19.6 mph N/A   Clear
5:16 PM 93.9 °F 94.8 °F 62.1 °F 35% 29.99 in 10.0 mi WSW 4.6 mph - N/A Thunderstorm Partly Cloudy
5:53 PM 82.9 °F 84.6 °F 64.9 °F 54% 29.98 in 10.0 mi North 9.2 mph 20.7 mph N/A   Mostly Cloudy
6:53 PM 81.0 °F 83.8 °F 68.0 °F 65% 30.00 in 10.0 mi North 8.1 mph 17.3 mph N/A   Clear
7:53 PM 79.0 °F - 68.0 °F 69% 30.04 in 10.0 mi SE 4.6 mph - N/A   Overcast
9:53 PM 72.0 °F - 64.9 °F 78% 30.12 in 10.0 mi North - - 0.01 in   Scattered Clouds
10:04 PM 71.1 °F - 64.9 °F 81% 30.16 in 10.0 mi North 8.1 mph 18.4 mph N/A   Mostly Cloudy
10:53 PM 68.0 °F - 61.0 °F 78% 30.14 in 10.0 mi North 13.8 mph 24.2 mph N/A   Overcast
11:53 PM 64.9 °F - 61.0 °F 87% 30.15 in 10.0 mi North 10.4 mph 21.9 mph 0.01 in   Overcast